This demonstration page uses our WeatherBlox Daily Observations layout. Learn more.

Left ArrowRight Arrow

Hourly Observations for December 22, 2021

Temp ( °F °C ) Dew Point ( °F °C ) Humidity (%) Winds ( mph kmh ) Pressure ( in mb ) Visibility ( mi km ) Precip ( " mm )
12:56 am 00:56 Clear 23 -5.1 13 -10.5 66 66 Calm 30.09 1019 10 16 0.00 0.00
1:56 am 01:56 Clear 22 -5.4 12 -11 65 65 Calm 30.09 1019 10 16 0.00 0.00
2:56 am 02:56 Clear 21 -6.3 12 -11.1 69 69 Calm 30.10 1019 10 16 0.00 0.00
3:56 am 03:56 Clear 20 -6.9 12 -10.9 73 73 Calm 30.09 1019 10 16 0.00 0.00
4:56 am 04:56 Clear 19 -7.1 13 -10.6 76 76 Calm 30.06 1018 10 16 0.00 0.00
5:56 am 05:56 Clear 20 -6.9 12 -11.3 71 71 SE 5 7 30.08 1019 10 16 0.00 0.00
7:56 am 07:56 Sunny 23 -5.2 12 -11.2 63 63 SSE 3 6 30.05 1018 10 16 0.00 0.00
8:56 am 08:56 undefined 25 -4.1 14 -10.1 63 63 SSE 3 6 30.06 1018 10 16 0.00 0.00
9:56 am 09:56 undefined 32 0.1 14 -9.9 47 47 S 7 11 30.07 1018 7 11 0.00 0.00
10:56 am 10:56 Sunny 38 3.1 14 -10.2 37 37 S 14 22 30.04 1017 8 13 0.00 0.00
11:56 am 11:56 Sunny 42 5.8 17 -8.5 35 35 S 14 22 29.98 1015 10 16 0.00 0.00
12:56 pm 12:56 undefined 48 9.1 19 -7.2 31 31 SW 16 26 29.93 1014 10 16 0.00 0.00
1:56 pm 13:56 Mostly Sunny 51 10.6 22 -5.8 31 31 SW 15 24 29.90 1012 10 16 0.00 0.00
2:56 pm 14:56 Mostly Sunny 53 11.5 22 -5.5 30 30 SW 9 15 29.90 1012 10 16 0.00 0.00
3:56 pm 15:56 Sunny 53 11.5 24 -4.6 32 32 SSW 10 17 29.89 1012 10 16 0.00 0.00
4:56 pm 16:56 Sunny 47 8.6 24 -4.2 40 40 S 6 9 29.90 1013 10 16 0.00 0.00
5:56 pm 17:56 Clear 44 6.4 25 -4.1 47 47 SSW 6 9 29.92 1013 10 16 0.00 0.00
6:56 pm 18:56 Clear 42 5.6 25 -4 50 50 S 7 11 29.89 1012 10 16 0.00 0.00
7:56 pm 19:56 Clear 37 3 23 -5.2 55 55 Calm 29.89 1012 10 16 0.00 0.00
8:56 pm 20:56 Partly Cloudy 37 2.6 23 -4.8 59 59 Calm 29.88 1012 10 16 0.00 0.00
9:56 pm 21:56 Mostly Clear 35 1.8 23 -4.9 61 61 Calm 29.88 1012 10 16 0.00 0.00
10:56 pm 22:56 Clear 33 0.4 24 -4.6 69 69 S 3 6 29.85 1011 10 16 0.00 0.00
11:56 pm 23:56 Clear 31 -0.3 24 -4.6 73 73 ESE 3 6 29.83 1010 10 16 0.00 0.00

Powered by AerisWeather